Location: Vancouver
(49.2500°N, 123.1330°W)
Time: 04:10:08
(UTC-08:00)

Cosmos 2333 Rocket - Visible Passes

Search period start: 24 November 2014 00:00
Search period end: 04 December 2014 00:00
Orbit: 840 x 861 km, 70.9° (Epoch: 23 November)

Date Brightness Start Highest point End Pass type
(mag) Time Alt. Az. Time Alt. Az. Time Alt. Az.
24 Nov 4.5 19:00:32 10° N 19:01:00 11° N 19:01:00 11° N visible
25 Nov 4.4 18:48:15 10° N 18:49:01 11° NNE 18:49:01 11° NNE visible
26 Nov 4.3 18:35:58 10° N 18:37:03 11° NNE 18:37:03 11° NNE visible
26 Nov 4.8 20:18:47 10° NNW 20:19:03 11° NNW 20:19:03 11° NNW visible
27 Nov 4.3 18:23:42 10° N 18:25:05 11° NNE 18:25:05 11° NNE visible
27 Nov 4.6 20:06:30 10° NNW 20:07:06 13° NNW 20:07:06 13° NNW visible
28 Nov 4.2 18:11:25 10° N 18:13:10 12° NNE 18:13:10 12° NNE visible
28 Nov 4.5 19:54:14 10° NNW 19:55:10 15° NNW 19:55:10 15° NNW visible
29 Nov 4.1 17:59:08 10° N 18:01:03 12° NNE 18:01:16 12° NNE visible
29 Nov 4.3 19:41:57 10° NNW 19:43:17 17° N 19:43:17 17° N visible
30 Nov 4.1 17:46:52 10° N 17:48:46 12° NNE 17:49:24 11° NNE visible
30 Nov 4.1 19:29:40 10° NNW 19:31:25 19° N 19:31:25 19° N visible
01 Dec 4.1 17:34:35 10° N 17:36:29 12° NNE 17:37:35 11° NE visible
01 Dec 3.9 19:17:23 10° NNW 19:19:36 22° N 19:19:36 22° N visible
02 Dec 4.1 17:22:19 10° N 17:24:12 12° NNE 17:25:49 10° NE visible
02 Dec 3.6 19:05:07 10° NNW 19:07:50 25° N 19:07:50 25° N visible
02 Dec 4.9 20:49:20 10° NW 20:49:51 13° NW 20:49:51 13° NW visible
03 Dec 4.1 17:10:02 10° N 17:11:56 12° NNE 17:13:49 10° NE visible
03 Dec 3.3 18:52:50 10° NNW 18:56:08 28° N 18:56:08 28° N visible
03 Dec 4.6 20:37:04 10° NW 20:38:09 16° NW 20:38:09 16° NW visible
